Home   Weather   Noumea   Past weeks

Flag for New Caledonia Past Weather in Noumea, New Caledonia, New Caledonia — Yesterday and Last 2 Weeks

Now
79 °F

Passing clouds.


Feels Like: 81 °F
Forecast: 74 / 86 °F
Wind: 3 mph from South

Location: La Tontouta Nlle-Caledonie

Current Time: Jan 21, 2017 at 8:06:14 pm

Latest Report: Jan 21, 2017 at 7:30 pm


Visibility: N/A

Pressure: 29.83 "Hg

Humidity: 70%

Dew Point: 68 °F

Location of NoumeaLocation

Past Weather in Noumea — Graph

°F

Noumea Temperature Yesterday

Maximum temperature yesterday: 91 °F (at 1:00 pm)
Minimum temperature yesterday: 64 °F (at 3:30 am)
Average temperature yesterday: 78 °F

High & Low Weather Summary for the Past Weeks

 TemperatureHumidityPressure
High93 °F (Jan 7, 12:00 pm)100% (Jan 8, 8:00 am)29.92 "Hg (Jan 8, 8:00 am)
Low64 °F (Jan 19, 5:00 am)41% (Jan 19, 11:30 am)29.68 "Hg (Jan 7, 1:30 pm)
Average80 °F76%29.81 "Hg
* Reported Jan 6 6:00 pm — Jan 21 6:30 pm, Noumea, Weather by CustomWeather, © 2017

Note: Actual official high and low records may vary slightly from our data, if they occured in-between our weather recording intervals... More about our weather records

Advertising

Noumea Weather History for the Previous 24 Hours

Scroll right to see more
 ConditionsComfort  
Time TempWeatherWind HumidityBarometerVisibility
6:30 pm
Sat, Jan 21
84 °FPassing clouds.7 mph55%29.80 "HgN/A
6:00 pm86 °FOvercast.8 mph52%29.80 "HgN/A
5:30 pm86 °FPartly sunny.9 mph52%29.77 "HgN/A
5:00 pm90 °FPartly sunny.9 mph46%29.77 "HgN/A
4:30 pm91 °FPassing clouds.9 mph44%29.77 "HgN/A
4:00 pm91 °FPassing clouds.10 mph46%29.74 "HgN/A
3:30 pm91 °FPassing clouds.9 mph46%29.74 "HgN/A
3:00 pm91 °FPassing clouds.9 mph49%29.74 "HgN/A
2:30 pm93 °FScattered clouds.13 mph44%29.74 "HgN/A
2:00 pm93 °FScattered clouds.12 mph44%29.77 "HgN/A
1:30 pm93 °FPassing clouds.12 mph44%29.77 "HgN/A
1:00 pm91 °FPassing clouds.8 mph46%29.77 "HgN/A
12:30 pm91 °FPassing clouds.10 mph49%29.77 "HgN/A
12:00 pm91 °FPassing clouds.12 mph49%29.77 "HgN/A
11:30 am90 °FPassing clouds.10 mph52%29.80 "HgN/A
11:00 am90 °FPassing clouds.9 mph52%29.80 "HgN/A
10:30 am91 °FPassing clouds.10 mph49%29.80 "HgN/A
10:00 am88 °FSunny.3 mph49%29.80 "Hg10 mi
9:30 am86 °FSunny.2 mph52%29.83 "Hg10 mi
9:00 am84 °FSunny.2 mph55%29.83 "Hg10 mi
8:30 am82 °FSunny.2 mph58%29.83 "Hg10 mi
8:00 am81 °FSunny.2 mph62%29.83 "Hg10 mi
7:30 am77 °FSunny.No wind74%29.83 "Hg10 mi
7:00 am73 °FSunny.No wind83%29.83 "Hg10 mi
6:30 am73 °FSunny.No wind78%29.83 "Hg10 mi
6:00 am68 °FSunny.2 mph88%29.83 "Hg10 mi
5:30 am68 °FSunny.No wind88%29.80 "Hg10 mi
5:00 am68 °FClear.2 mph88%29.80 "Hg10 mi
4:30 am70 °FClear.No wind83%29.80 "Hg10 mi
4:00 am70 °FClear.1 mph83%29.80 "Hg10 mi
3:30 am68 °FClear.No wind88%29.77 "Hg10 mi
3:00 am68 °FClear.No wind88%29.77 "Hg10 mi
2:30 am70 °FClear.2 mph88%29.77 "Hg10 mi
2:00 am68 °FClear.2 mph88%29.77 "Hg10 mi
1:30 am70 °FClear.No wind88%29.80 "Hg10 mi
1:00 am68 °FClear.No wind94%29.80 "Hg10 mi
12:30 am72 °FClear.No wind83%29.80 "Hg10 mi
12:00 am72 °FClear.No wind83%29.83 "Hg10 mi
11:30 pm
Fri, Jan 20
72 °FClear.No wind83%29.83 "Hg10 mi
11:00 pm72 °FClear.1 mph83%29.83 "Hg10 mi
10:30 pm73 °FClear.No wind78%29.83 "Hg10 mi
10:00 pm75 °FClear.No wind74%29.83 "Hg10 mi
9:30 pm75 °FClear.1 mph74%29.83 "Hg10 mi
9:00 pm75 °FClear.3 mph74%29.83 "Hg10 mi
8:30 pm77 °FClear.No wind69%29.83 "Hg10 mi
8:00 pm77 °FClear.2 mph69%29.83 "Hg10 mi
Weather by CustomWeather, © 2017

See weather overviewHow to use our weather pages